SCOUT A DEB, 3214

Orbit data source: Space-Track

SCOUT A DEB, 3214 is space debris in LEO originally from a launch on Sat, 02 Mar 1968 UTC launched from the Air Force Western Test Range (AFWTR). Debris objects in space refer to the collection of defunct objects orbiting the Earth. Examples of debris include non-operational satellites, rocket bodies, and fragments generated from explosions, collisions, or faulty payload assembly.

Loading next visibility...
Identifier
3214, 1968-012D
Orbit
LEO
Country
Flag of USUS
Related business
Manufacturer
Unknown
Mission
Spacecraft
Bus & Motor
Unknown
Mass
Unknown
Launch date (UTC)
1968-03-02 (58 years ago)
Launch vehicle
Unknown
Launch site
Air Force Western Test Range (AFWTR)
Object type
Payload
Rocket body
Debris
Shape & HBR
Unknown shape, 0.1 m
Radar Cross Section
Medium (>0.1 m² and <1 m²)

Expand to show TLE details & history
Last TLE update: 1 day ago

TLE from 1 day ago
0 SCOUT A DEB
1 03214U 68012D   26208.22261524  .00000076  00000-0  12904-3 0  9991
2 03214  89.8142 102.8146 0186353 145.5335 345.9232 13.29291218589859
Epoch: 2026-07-27T05:20Z
TLE epoch observation values (Epoch: 2026-07-27T05:20:33.956Z)
Latitude
49.16867°
Longitude
-102.45007°
Altitude
1,021.32 km
Speed
7.412 km/s
True Right ascension
18h 50m 24s
True Declination
49° 00' 16"
Sunlit
Object was in daylight at epoch
Visualization orbit readout
Latitude
Unknown
Longitude
Unknown
Altitude
Unknown
Speed
Unknown
Apparent Right ascension
Unknown
Apparent Declination
Unknown
Sunlit
N/A
Visualization observer readout
Local Sidereal Time
04:45:51
Azimuth
Unknown
Elevation
Unknown
Doppler factor
Unknown
Orbital elements
Apogee altitude
1,286.741 km
Perigee altitude
1,006.292 km
Semi-major axis
7,524.654 km
Eccentricity
0.01864
Inclination
89.8142°
RAAN
102.8146°
Arg. of periapsis
145.5335°
True anomaly
345.39182°
Mean anomaly
345.9232°
Eccentric anomaly
345.65873°
Mean motion
3.32517 °/min
Orbital period
108.27 mins
BSTAR
0.00012904
Loading maneuver chart data...
Computing Atmospheric mass density...
Loading historical data...
Loading historical data...
Loading historical data...
Loading historical data...
Loading historical data...
Loading historical data...
Loading historical data...

Documentation

Showing up to 5 results
|